User: anonymous   Login
Location: Santa Teresa Spring
(37.2333°N, 121.7000°W)
Time: 03:28:05
(UTC-07:00)
Language:

Cosmos 1633 - Orbit

View from above orbital plane
View from above orbital plane
View from above satellite
View from above satellite

Ground track
Ground track

The orbit data is extracted from the following two-line orbital elements,

1 15592U 85020A   16176.45333416  .00001680  00000-0  61821-4 0  9994
2 15592  82.5388 317.3469 0014316   7.9220 352.2242 15.27044744709673
Epoch (UTC): 24 June 2016 10:52:48
Eccentricity: 0.0014316
inclination: 82.5388°
perigee height: 475 km
apogee height: 494 km
right ascension of ascending node: 317.3469°
argument of perigee: 7.9220°
revolutions per day: 15.27044744
mean anomaly at epoch: 352.2242°
orbit number at epoch: 70967

The dashed part of the orbit path shows where the satellite is in the earth's shadow,  

DLR